Regional Weather Roundup
Issued by NWS State College, PA

Home | Current Version | Previous Version | Text Only | Print | Product List | Glossary On
Versions: 1 2 3 4 5 6 7 8 9 10 11 12 13 14 15 16 17 18 19 20 21 22 23 24 25 26 27 28 29 30 31 32 33 34 35 36 37 38 39 40 41 42 43 44 45 46 47 48 49 50
045
ASUS41 KCTP 301410
RWRCTP

REGIONAL WEATHER ROUNDUP
NATIONAL WEATHER SERVICE STATE COLLEGE PA
1000 AM EDT SUN APR 30 2017

Note: "fair" indicates few or no clouds below 12,000 feet with no
significant weather and/or obstructions to visibility.

* = STATION THAT DOES NOT REPORT PRECIPITATION /E.G. RAIN...SNOW...ETC/
    THUNDER OR FOG.

PAZ002>004-007>009-013>016-020>023-029>032-301500-
WESTERN PENNSYLVANIA

CITY           SKY/WX    TMP DP  RH WIND       PRES   REMARKS
ERIE           MOSUNNY   51  42  71 NE8       30.03F
MEADVILLE      MOSUNNY   64  58  80 MISG      30.03F
FRANKLIN*      PTSUNNY   64  57  77 S8        30.07F
NEW CASTLE     FAIR      68  62  81 SE6       30.03F
BEAVER COUNTY  PTSUNNY   66  61  82 SE7       30.04F
BUTLER*        SUNNY     68  61  77 S5        30.06F
PITTSBURGH INT PTSUNNY   68  63  84 SE6       30.04F
PITTSBURGH     CLOUDY    71  61  70 S9        30.05F
INDIANA*       CLOUDY    72  63  73 S7        30.11F
LATROBE        PTSUNNY   75  63  64 S9        30.08F
WASHINGTON CO* SUNNY     73  63  68 S7        30.06F
$$

PAZ004>006-010>012-017>019-024>028-033>037-041-042-045-046-049>053-301500-
CENTRAL PENNSYLVANIA

CITY           SKY/WX    TMP DP  RH WIND       PRES   REMARKS
BRADFORD       MOSUNNY   59  50  72 SE9       30.12S
DUBOIS         CLOUDY    60  53  77 SE9G25    30.10F
CLEARFIELD     CLOUDY    59  52  77 NE5       30.14F
JOHNSTOWN      MOSUNNY   67  61  81 S10       30.14F
ALTOONA        CLOUDY    64  57  78 E5        30.16F
STATE COLLEGE  CLOUDY    57  52  82 CALM      30.17S
WILLIAMSPORT   CLOUDY    56  42  59 E8        30.18R
SELINSGROVE    CLOUDY    58  47  66 N6        30.19S
FT INDIANTOWN  CLOUDY    61  46  58 NE7       30.18S
CAPITAL CITY   CLOUDY    66  50  56 E10       30.16F
HARRISBURG     CLOUDY    66  51  58 E10       30.16S
YORK           CLOUDY    66  58  75 E8        30.15F
$$

PAZ038>040-043-044-047-048-054-055-060>062-067>071-301500-
EASTERN PENNSYLVANIA

CITY           SKY/WX    TMP DP  RH WIND       PRES   REMARKS
SCRANTON       CLOUDY    57  40  52 CALM      30.19R
MOUNT POCONO   CLOUDY    53  40  61 E13G20    30.19F
ALLENTOWN      CLOUDY    64  46  52 E7        30.19F
QUAKERTOWN*    MOSUNNY   64  48  55 SE13      30.20F
READING        CLOUDY    65  47  52 SE6       30.17F
LANCASTER      CLOUDY    64  52  64 E10       30.17F
COATESVILLE    PTSUNNY   66  48  52 E13       30.19F
POTTSTOWN      PTSUNNY   64  48  56 E9        30.20F
BLUE BELL      CLOUDY    63  50  63 E10       30.21F
DOYLESTOWN     MOSUNNY   65  51  60 VRB3      30.20S
WILLOW GROVE   NOT AVBL
NORTH PHILA    CLOUDY    67  49  52 SE14G31   30.23R
PHILADELPHIA   CLOUDY    67  52  58 E13G21    30.20F
$$




USA.gov is the U.S. government's official web portal to all federal, state and local government web resources and services.